UPS2358 KMIA-KSDF

Flight info

Callsign UPS2358
Flight time 2h 10m
Altitude 38000
Route HURCN4 KPASA Q118 KAILL/N0467F390 Q118 GLAZR LEDDL1
Aircraft B763/H-SDE3FGHIM3RWXY/LB1

Departure

Time 2026-05-04 06:44
Airport Miami International Airport (KMIA)

Arrival

Time 2026-05-04 08:54
Airport Louisville Muhammad Ali International Airport (KSDF)
Time Latitude Longitude Altitude Speed Heading
2026-05-04 06:16 25.80565 -80.30184 15 ft 0 kts 89°
2026-05-04 06:30 25.80565 -80.30188 15 ft 2 kts 89°
2026-05-04 06:30 25.80565 -80.30205 15 ft 2 kts 89°
2026-05-04 06:30 25.80566 -80.30222 15 ft 2 kts 104°
2026-05-04 06:31 25.80571 -80.30237 15 ft 2 kts 120°
2026-05-04 06:31 25.80579 -80.30250 15 ft 2 kts 136°
2026-05-04 06:31 25.80591 -80.30260 15 ft 2 kts 153°
2026-05-04 06:31 25.80605 -80.30265 15 ft 2 kts 168°
2026-05-04 06:32 25.80614 -80.30267 15 ft 0 kts 180°
2026-05-04 06:33 25.80618 -80.30267 15 ft 0 kts 180°
2026-05-04 06:36 25.80443 -80.30252 15 ft 8 kts 162°
2026-05-04 06:37 25.80403 -80.30211 15 ft 7 kts 114°
2026-05-04 06:37 25.80401 -80.30150 15 ft 8 kts 84°
2026-05-04 06:37 25.80405 -80.30082 15 ft 9 kts 90°
2026-05-04 06:37 25.80406 -80.30007 15 ft 10 kts 88°
2026-05-04 06:38 25.80408 -80.29926 15 ft 10 kts 90°
2026-05-04 06:38 25.80407 -80.29840 15 ft 11 kts 94°
2026-05-04 06:40 25.79983 -80.29784 15 ft 8 kts 234°
2026-05-04 06:40 25.79974 -80.29850 15 ft 9 kts 271°
2026-05-04 06:40 25.79976 -80.29926 15 ft 10 kts 271°
2026-05-04 06:40 25.79986 -80.30006 15 ft 11 kts 284°
2026-05-04 06:41 25.80002 -80.30062 15 ft 0 kts 289°
2026-05-04 06:41 25.80005 -80.30070 15 ft 2 kts 292°
2026-05-04 06:41 25.80021 -80.30093 15 ft 4 kts 319°
2026-05-04 06:42 25.80054 -80.30102 15 ft 4 kts 10°
2026-05-04 06:42 25.80077 -80.30080 15 ft 4 kts 69°
2026-05-04 06:42 25.80078 -80.30057 15 ft 0 kts 89°
2026-05-04 06:44 25.80272 -80.24541 1197 ft 185 kts 87°
2026-05-04 06:44 25.80335 -80.23040 1481 ft 207 kts 86°
2026-05-04 06:44 25.80404 -80.21375 1856 ft 226 kts 87°
2026-05-04 06:45 25.80464 -80.19600 2450 ft 235 kts 87°
2026-05-04 06:45 25.80664 -80.17811 3181 ft 236 kts 71°
2026-05-04 06:45 25.81423 -80.16215 3824 ft 241 kts 46°
2026-05-04 06:45 25.82781 -80.15108 4431 ft 248 kts 20°
2026-05-04 06:46 25.84497 -80.14735 4881 ft 260 kts 353°
2026-05-04 06:46 25.86300 -80.15086 5509 ft 269 kts 346°
2026-05-04 06:46 25.88177 -80.15337 6272 ft 277 kts 352°
2026-05-04 06:46 25.90060 -80.15756 7090 ft 277 kts 336°
2026-05-04 06:48 26.00878 -80.24377 11793 ft 328 kts 288°
2026-05-04 06:48 26.01714 -80.26790 12215 ft 347 kts 288°
2026-05-04 06:49 26.02613 -80.29353 12697 ft 363 kts 289°
2026-05-04 06:50 26.09381 -80.48215 18064 ft 389 kts 288°
2026-05-04 06:51 26.10368 -80.50957 18895 ft 390 kts 288°
2026-05-04 06:51 26.11416 -80.53782 19616 ft 394 kts 291°
2026-05-04 06:51 26.12820 -80.56428 20291 ft 404 kts 301°
2026-05-04 06:51 26.14680 -80.58757 21061 ft 412 kts 311°
2026-05-04 06:52 26.16969 -80.60751 21720 ft 422 kts 321°
2026-05-04 06:52 26.19621 -80.62308 22303 ft 434 kts 330°
2026-05-04 06:52 26.22451 -80.63551 22921 ft 436 kts 331°
2026-05-04 06:52 26.25274 -80.64863 23292 ft 443 kts 330°
2026-05-04 06:53 26.28094 -80.66182 23952 ft 444 kts 329°
2026-05-04 06:53 26.30965 -80.67543 24508 ft 447 kts 329°
2026-05-04 06:53 26.33837 -80.68909 25034 ft 451 kts 329°
2026-05-04 06:53 26.36713 -80.70290 25562 ft 452 kts 328°
2026-05-04 06:54 26.39465 -80.71949 26038 ft 447 kts 319°
2026-05-04 06:54 26.41861 -80.74062 26591 ft 438 kts 309°
2026-05-04 06:54 26.43962 -80.76508 27058 ft 438 kts 306°
2026-05-04 06:54 26.46054 -80.78989 27736 ft 435 kts 307°
2026-05-04 06:55 26.48100 -80.81448 28160 ft 438 kts 306°
2026-05-04 06:55 26.50188 -80.83937 28778 ft 436 kts 308°
2026-05-04 06:55 26.52455 -80.86160 29431 ft 438 kts 314°
2026-05-04 06:55 26.54791 -80.88269 29912 ft 436 kts 313°
2026-05-04 06:56 26.57130 -80.90406 30394 ft 436 kts 312°
2026-05-04 06:57 26.73517 -81.05340 33476 ft 431 kts 311°
2026-05-04 06:58 26.75818 -81.07438 33916 ft 431 kts 311°
2026-05-04 06:58 26.78176 -81.09592 34273 ft 431 kts 311°
2026-05-04 06:58 26.80454 -81.11665 35043 ft 422 kts 310°
2026-05-04 06:58 26.82725 -81.13744 35247 ft 425 kts 310°
2026-05-04 06:59 26.85005 -81.15829 35643 ft 423 kts 310°
2026-05-04 06:59 26.87262 -81.17887 36270 ft 417 kts 309°
2026-05-04 06:59 26.91801 -81.22051 36616 ft 422 kts 309°
2026-05-04 07:01 27.08096 -81.35928 38013 ft 434 kts 317°
2026-05-04 07:01 27.10746 -81.37622 38004 ft 432 kts 317°
2026-05-04 07:02 27.15971 -81.40951 37999 ft 431 kts 317°
2026-05-04 07:02 27.21173 -81.44267 38003 ft 432 kts 317°
2026-05-04 07:03 27.26417 -81.47605 38015 ft 432 kts 317°
2026-05-04 07:03 27.31623 -81.50919 38015 ft 427 kts 317°
2026-05-04 07:04 27.34288 -81.52472 38018 ft 439 kts 323°
2026-05-04 07:04 27.37123 -81.53781 38021 ft 444 kts 324°
2026-05-04 07:04 27.42833 -81.56403 38017 ft 446 kts 324°
2026-05-04 07:05 27.48601 -81.59037 38007 ft 442 kts 324°
2026-05-04 07:05 27.54311 -81.61648 38010 ft 443 kts 324°
2026-05-04 07:06 27.62877 -81.65568 38041 ft 445 kts 324°
2026-05-04 07:07 27.68630 -81.68195 38043 ft 440 kts 324°
2026-05-04 07:09 27.91343 -81.78620 38066 ft 442 kts 325°
2026-05-04 07:09 27.96994 -81.81219 38065 ft 439 kts 324°
2026-05-04 07:10 28.02640 -81.83821 38069 ft 436 kts 324°
2026-05-04 07:12 28.24126 -81.95785 38054 ft 415 kts 313°
2026-05-04 07:12 28.28848 -81.99571 38061 ft 416 kts 313°
2026-05-04 07:13 28.33588 -82.03347 38062 ft 418 kts 314°
2026-05-04 07:13 28.38351 -82.07127 38056 ft 415 kts 313°
2026-05-04 07:14 28.50202 -82.16550 38068 ft 416 kts 314°
2026-05-04 07:15 28.54928 -82.20309 38054 ft 412 kts 314°
2026-05-04 07:15 28.59650 -82.24076 38060 ft 416 kts 314°
2026-05-04 07:16 28.64391 -82.27858 38065 ft 413 kts 314°
2026-05-04 07:16 28.69093 -82.31615 38075 ft 413 kts 314°
2026-05-04 07:17 28.73823 -82.35397 38072 ft 415 kts 315°
2026-05-04 07:17 28.78553 -82.39182 38072 ft 412 kts 315°
2026-05-04 07:18 28.83259 -82.42954 38072 ft 413 kts 315°
2026-05-04 07:18 28.87933 -82.46704 38071 ft 412 kts 315°
2026-05-04 07:19 28.92658 -82.50502 38077 ft 413 kts 316°
2026-05-04 07:19 28.97347 -82.54272 38069 ft 412 kts 315°
2026-05-04 07:20 29.02043 -82.58052 38065 ft 411 kts 316°
2026-05-04 07:20 29.06734 -82.61835 38071 ft 414 kts 316°
2026-05-04 07:22 29.25517 -82.77016 38084 ft 412 kts 316°
2026-05-04 07:23 29.30209 -82.80821 38084 ft 412 kts 316°
2026-05-04 07:23 29.34847 -82.84584 38093 ft 410 kts 316°
2026-05-04 07:24 29.39542 -82.88400 38084 ft 414 kts 316°
2026-05-04 07:24 29.44255 -82.92234 38088 ft 411 kts 316°
2026-05-04 07:26 29.64967 -83.04584 38102 ft 426 kts 328°
2026-05-04 07:27 29.70435 -83.07199 38101 ft 425 kts 329°
2026-05-04 07:27 29.75903 -83.09813 38101 ft 425 kts 329°
2026-05-04 07:28 29.81383 -83.12434 38109 ft 425 kts 329°
2026-05-04 07:28 29.86878 -83.15067 38112 ft 428 kts 329°
2026-05-04 07:29 29.92360 -83.17691 38098 ft 423 kts 329°
2026-05-04 07:29 29.97797 -83.20303 38106 ft 425 kts 329°
2026-05-04 07:30 30.03302 -83.22948 38105 ft 427 kts 329°
2026-05-04 07:30 30.08761 -83.25571 38104 ft 424 kts 329°
2026-05-04 07:31 30.14255 -83.28220 38110 ft 425 kts 329°
2026-05-04 07:33 30.36069 -83.38750 38106 ft 424 kts 329°
2026-05-04 07:33 30.41487 -83.41373 38094 ft 422 kts 330°
2026-05-04 07:34 30.46906 -83.44000 38106 ft 423 kts 330°
2026-05-04 07:34 30.52363 -83.46648 38101 ft 421 kts 330°
2026-05-04 07:35 30.57766 -83.49271 38098 ft 422 kts 330°
2026-05-04 07:35 30.63170 -83.51901 38102 ft 422 kts 330°
2026-05-04 07:36 30.68596 -83.54542 38102 ft 420 kts 330°
2026-05-04 07:38 30.90250 -83.65119 38118 ft 421 kts 330°
2026-05-04 07:38 30.95640 -83.67760 38132 ft 422 kts 330°
2026-05-04 07:39 31.01073 -83.70425 38131 ft 419 kts 330°
2026-05-04 07:39 31.06463 -83.73073 38130 ft 422 kts 330°
2026-05-04 07:40 31.11888 -83.75740 38137 ft 421 kts 330°
2026-05-04 07:40 31.17276 -83.78394 38129 ft 419 kts 331°
2026-05-04 07:41 31.22665 -83.81051 38116 ft 420 kts 330°
2026-05-04 07:41 31.28063 -83.83716 38120 ft 421 kts 331°
2026-05-04 07:42 31.33477 -83.86391 38120 ft 423 kts 331°
2026-05-04 07:42 31.38912 -83.89079 38122 ft 421 kts 331°
2026-05-04 07:43 31.44309 -83.91754 38120 ft 420 kts 331°
2026-05-04 07:43 31.49693 -83.94425 38114 ft 419 kts 331°
2026-05-04 07:44 31.55365 -83.96361 38135 ft 431 kts 342°
2026-05-04 07:44 31.61279 -83.97697 38116 ft 431 kts 342°
2026-05-04 07:45 31.67212 -83.99028 38111 ft 431 kts 342°
2026-05-04 07:45 31.73097 -84.00343 38123 ft 433 kts 342°
2026-05-04 07:46 31.79032 -84.01666 38110 ft 431 kts 342°
2026-05-04 07:46 31.84952 -84.02988 38109 ft 432 kts 342°
2026-05-04 07:47 31.90879 -84.04311 38104 ft 434 kts 342°
2026-05-04 07:49 32.14621 -84.09628 38116 ft 432 kts 343°
2026-05-04 07:49 32.20546 -84.10960 38109 ft 433 kts 343°
2026-05-04 07:50 32.26483 -84.12296 38110 ft 433 kts 343°
2026-05-04 07:50 32.32404 -84.13631 38109 ft 433 kts 343°
2026-05-04 07:51 32.38311 -84.14963 38109 ft 433 kts 343°
2026-05-04 07:51 32.44244 -84.16303 38101 ft 431 kts 343°
2026-05-04 07:52 32.50159 -84.17642 38103 ft 432 kts 343°
2026-05-04 07:52 32.56086 -84.18985 38101 ft 433 kts 343°
2026-05-04 07:54 32.79751 -84.24363 38101 ft 432 kts 343°
2026-05-04 07:55 32.85680 -84.25716 38109 ft 433 kts 343°
2026-05-04 07:55 32.91602 -84.27068 38117 ft 434 kts 343°
2026-05-04 07:56 32.97536 -84.28425 38071 ft 433 kts 343°
2026-05-04 07:56 33.03451 -84.29779 38113 ft 433 kts 343°
2026-05-04 07:57 33.09374 -84.31136 38109 ft 433 kts 343°
2026-05-04 07:57 33.15279 -84.32493 38105 ft 433 kts 343°
2026-05-04 07:58 33.21195 -84.33853 38114 ft 432 kts 343°
2026-05-04 07:58 33.27099 -84.35213 38122 ft 433 kts 343°
2026-05-04 07:59 33.33001 -84.36574 38119 ft 433 kts 343°
2026-05-04 07:59 33.38921 -84.37940 38105 ft 433 kts 343°
2026-05-04 08:00 33.44867 -84.39315 38124 ft 433 kts 343°
2026-05-04 08:02 33.68491 -84.44724 38104 ft 433 kts 343°
2026-05-04 08:02 33.74436 -84.46032 38103 ft 434 kts 343°
2026-05-04 08:03 33.80379 -84.47340 38097 ft 434 kts 343°
2026-05-04 08:03 33.86328 -84.48650 38106 ft 434 kts 343°
2026-05-04 08:04 33.92283 -84.49965 38114 ft 434 kts 343°
2026-05-04 08:04 33.98240 -84.51282 38113 ft 434 kts 343°
2026-05-04 08:05 34.04198 -84.52434 38101 ft 438 kts 348°
2026-05-04 08:05 34.10276 -84.53080 38104 ft 440 kts 348°
2026-05-04 08:06 34.16389 -84.53728 38108 ft 438 kts 348°
2026-05-04 08:06 34.22495 -84.54372 38101 ft 438 kts 348°
2026-05-04 08:08 34.46894 -84.56938 38098 ft 439 kts 348°
2026-05-04 08:11 34.74283 -84.59835 38099 ft 439 kts 348°
2026-05-04 08:11 34.83433 -84.60806 38094 ft 437 kts 348°
2026-05-04 08:12 34.89469 -84.61449 38094 ft 438 kts 348°
2026-05-04 08:12 34.95545 -84.62097 38099 ft 439 kts 348°
2026-05-04 08:13 35.01638 -84.62746 38086 ft 437 kts 348°
2026-05-04 08:13 35.07696 -84.63393 38082 ft 436 kts 348°
2026-05-04 08:14 35.13759 -84.64043 38084 ft 436 kts 348°
2026-05-04 08:16 35.38084 -84.66657 38102 ft 437 kts 347°
2026-05-04 08:16 35.44104 -84.67306 38099 ft 436 kts 347°
2026-05-04 08:17 35.50156 -84.67960 38090 ft 436 kts 347°
2026-05-04 08:17 35.56214 -84.68616 38086 ft 437 kts 347°
2026-05-04 08:19 35.80412 -84.71244 38077 ft 436 kts 347°
2026-05-04 08:20 35.86445 -84.71901 38080 ft 436 kts 347°
2026-05-04 08:20 35.92508 -84.72563 38076 ft 437 kts 347°
2026-05-04 08:21 35.98537 -84.73222 38076 ft 435 kts 347°
2026-05-04 08:21 36.04570 -84.73883 38071 ft 436 kts 347°
2026-05-04 08:22 36.10578 -84.74541 38056 ft 434 kts 347°
2026-05-04 08:24 36.31482 -84.76836 38055 ft 415 kts 346°
2026-05-04 08:24 36.34369 -84.77157 38058 ft 415 kts 346°
2026-05-04 08:24 36.40195 -84.77809 37491 ft 427 kts 346°
2026-05-04 08:25 36.43190 -84.77937 36890 ft 434 kts 353°
2026-05-04 08:25 36.46185 -84.77763 36352 ft 430 kts 354°
2026-05-04 08:25 36.49150 -84.77599 35898 ft 427 kts 353°
2026-05-04 08:25 36.52113 -84.77432 35396 ft 428 kts 354°
2026-05-04 08:26 36.55069 -84.77261 34867 ft 428 kts 354°
2026-05-04 08:27 36.76371 -84.75995 30193 ft 448 kts 355°
2026-05-04 08:28 36.79464 -84.75809 29598 ft 448 kts 355°
2026-05-04 08:28 36.82576 -84.75620 29095 ft 447 kts 356°
2026-05-04 08:28 36.88670 -84.75362 29061 ft 438 kts 350°
2026-05-04 08:29 36.94622 -84.76831 29064 ft 434 kts 340°
2026-05-04 08:31 37.17910 -84.84449 25904 ft 420 kts 340°
2026-05-04 08:33 37.36821 -84.90727 20492 ft 387 kts 340°
2026-05-04 08:33 37.39386 -84.91581 19740 ft 382 kts 340°
2026-05-04 08:35 37.54168 -85.03284 16769 ft 347 kts 317°
2026-05-04 08:35 37.55960 -85.05194 16771 ft 328 kts 317°
2026-05-04 08:35 37.57770 -85.06850 16732 ft 317 kts 329°
2026-05-04 08:35 37.59868 -85.07854 16494 ft 327 kts 338°
2026-05-04 08:37 37.72687 -85.12854 15972 ft 320 kts 338°
2026-05-04 08:37 37.74834 -85.13648 15629 ft 329 kts 339°
2026-05-04 08:37 37.77082 -85.14452 14904 ft 334 kts 339°
2026-05-04 08:38 37.79266 -85.15228 14756 ft 318 kts 339°
2026-05-04 08:38 37.81349 -85.15974 14232 ft 311 kts 339°
2026-05-04 08:38 37.83414 -85.16715 13690 ft 308 kts 339°
2026-05-04 08:40 37.97241 -85.22974 12934 ft 297 kts 315°
2026-05-04 08:40 37.98790 -85.24734 12914 ft 300 kts 316°
2026-05-04 08:40 38.00334 -85.26501 12905 ft 299 kts 315°
2026-05-04 08:41 38.01868 -85.28266 12896 ft 297 kts 315°
2026-05-04 08:41 38.03392 -85.30027 12906 ft 297 kts 315°
2026-05-04 08:41 38.04918 -85.31797 12899 ft 297 kts 315°
2026-05-04 08:41 38.06448 -85.33575 12878 ft 296 kts 315°
2026-05-04 08:42 38.07925 -85.35291 12820 ft 279 kts 315°
2026-05-04 08:42 38.09327 -85.36920 12639 ft 264 kts 315°
2026-05-04 08:42 38.10625 -85.38432 12406 ft 252 kts 314°
2026-05-04 08:42 38.11912 -85.39934 11937 ft 250 kts 314°
2026-05-04 08:43 38.13194 -85.41433 11457 ft 250 kts 314°
2026-05-04 08:43 38.14460 -85.42910 11075 ft 246 kts 314°
2026-05-04 08:43 38.15723 -85.44386 10523 ft 247 kts 314°
2026-05-04 08:43 38.16966 -85.45840 9985 ft 245 kts 313°
2026-05-04 08:44 38.18230 -85.47317 9510 ft 243 kts 313°
2026-05-04 08:44 38.19463 -85.48760 9008 ft 242 kts 313°
2026-05-04 08:46 38.27970 -85.58733 6676 ft 235 kts 312°
2026-05-04 08:46 38.29163 -85.60133 6356 ft 235 kts 312°
2026-05-04 08:46 38.30360 -85.61540 6151 ft 232 kts 312°
2026-05-04 08:46 38.31545 -85.62933 6056 ft 232 kts 312°
2026-05-04 08:47 38.32732 -85.64329 5999 ft 234 kts 312°
2026-05-04 08:47 38.33931 -85.65740 6000 ft 235 kts 311°
2026-05-04 08:47 38.35152 -85.67114 5993 ft 238 kts 320°
2026-05-04 08:47 38.36739 -85.67932 6020 ft 249 kts 338°
2026-05-04 08:48 38.38423 -85.68497 5995 ft 251 kts 337°
2026-05-04 08:48 38.40089 -85.69064 5990 ft 248 kts 338°
2026-05-04 08:48 38.41759 -85.69624 5970 ft 248 kts 336°
2026-05-04 08:48 38.43287 -85.70643 5512 ft 247 kts 310°
2026-05-04 08:49 38.44174 -85.72448 5060 ft 241 kts 282°
2026-05-04 08:50 38.37413 -85.79494 3955 ft 233 kts 187°
2026-05-04 08:50 38.35764 -85.79055 3538 ft 249 kts 170°
2026-05-04 08:51 38.34113 -85.78419 3286 ft 246 kts 172°
2026-05-04 08:51 38.32470 -85.77830 3113 ft 240 kts 172°
2026-05-04 08:51 38.30893 -85.77276 2980 ft 231 kts 173°
2026-05-04 08:51 38.29371 -85.76753 2680 ft 228 kts 172°
2026-05-04 08:52 38.27849 -85.76233 2383 ft 220 kts 172°
2026-05-04 08:52 38.26426 -85.75742 2078 ft 201 kts 172°
2026-05-04 08:52 38.25135 -85.75303 1819 ft 184 kts 172°
2026-05-04 08:52 38.23962 -85.74901 1572 ft 165 kts 172°
2026-05-04 08:53 38.22926 -85.74550 1367 ft 146 kts 171°
2026-05-04 08:54 38.17547 -85.72736 487 ft 39 kts 164°
2026-05-04 08:55 38.17361 -85.72676 484 ft 13 kts 182°
2026-05-04 08:55 38.17313 -85.72717 484 ft 2 kts 253°
2026-05-04 08:55 38.17315 -85.72747 484 ft 4 kts 284°
2026-05-04 08:55 38.17316 -85.72777 484 ft 0 kts 257°
2026-05-04 08:57 38.17098 -85.72942 480 ft 7 kts